FENGYUN 1C DEB, 35108

Orbit data source: Space-Track

FENGYUN 1C DEB, 35108 is space debris in SSO originally from a launch on Mon, 10 May 1999 UTC launched from the Taiyaun Space Center, China (TSC). Fengyun 1C debris stems from the Chinese weather satellite Fengyun-1C, which was intentionally destroyed by a Chinese anti-satellite missile in 2007. This event dramatically increased the amount of space debris, with thousands of trackable fragments posing hazards to satellites and human spaceflight. The Fengyun 1C debris cloud has become a focal point in discussions about space sustainability and the need for international regulations to prevent the creation of new debris.

Loading next visibility...
Identifier
35108, 1999-025DKL
Orbit
SSO
Country
Flag of CNCN / PRC
Related business
Manufacturer
Unknown
Mission
Spacecraft
Bus & Motor
Unknown
Mass
Unknown
Launch date (UTC)
1999-05-10 (27 years ago)
Launch vehicle
Unknown
Launch site
Taiyaun Space Center, China (TSC)
Object type
Payload
Rocket body
Debris
Shape & HBR
Unknown shape, 0.1 m
Radar Cross Section
Small (<0.1 m²)

Expand to show TLE details & history
Last TLE update: 5 days ago

TLE from 5 days ago
0 FENGYUN 1C DEB
1 35108U 99025DKL 26250.24618026  .00000256  00000-0  16432-3 0  9998
2 35108  98.8146 244.0275 0134288  26.4709 334.3238 14.07192863930147
Epoch: 2026-09-07T05:54Z
TLE epoch observation values (Epoch: 2026-09-07T05:54:29.974Z)
Latitude
-0.00006°
Longitude
169.07292°
Altitude
784.41 km
Speed
7.506 km/s
True Right ascension
16h 16m 06s
True Declination
0° 00' 00"
Sunlit
Object was in daylight at epoch
Visualization orbit readout
Latitude
Unknown
Longitude
Unknown
Altitude
Unknown
Speed
Unknown
Apparent Right ascension
Unknown
Apparent Declination
Unknown
Sunlit
N/A
Visualization observer readout
Local Sidereal Time
03:49:36
Azimuth
Unknown
Elevation
Unknown
Doppler factor
Unknown
Orbital elements
Apogee altitude
963.456 km
Perigee altitude
768.891 km
Semi-major axis
7,244.311 km
Eccentricity
0.01343
Inclination
98.8146°
RAAN
244.0275°
Arg. of periapsis
26.4709°
True anomaly
333.64683°
Mean anomaly
334.3238°
Eccentric anomaly
333.98635°
Mean motion
3.52004 °/min
Orbital period
102.27 mins
BSTAR
0.00016432
Loading maneuver chart data...
Computing Atmospheric mass density...
Loading historical data...
Loading historical data...
Loading historical data...
Loading historical data...
Loading historical data...
Loading historical data...
Loading historical data...

Documentation

Showing up to 5 results
|